Time,TemperatureF,DewpointF,PressureIn,WindDirection,WindDirectionDegrees,WindSpeedMPH,WindSpeedGustMPH,Humidity,HourlyPrecipIn,Conditions,Clouds,dailyrainin,SoftwareType,DateUTC
2013-12-29 00:00:00,42.8,32.0,30.03,NE,36,1.0,-999.0,67,-99.99,,,0.00,weatherlink.com 1.10,2013-12-29 08:00:00,
2013-12-29 00:17:00,43.2,32.0,30.03,NE,36,2.0,-999.0,65,-99.99,,,0.00,weatherlink.com 1.10,2013-12-29 08:17:00,
2013-12-29 00:31:00,42.8,32.0,30.02,NE,36,4.0,-999.0,65,-99.99,,,0.00,weatherlink.com 1.10,2013-12-29 08:31:00,
2013-12-29 00:46:00,42.0,31.0,30.02,NE,36,2.0,-999.0,66,-99.99,,,0.00,weatherlink.com 1.10,2013-12-29 08:46:00,
2013-12-29 01:01:00,41.9,31.0,30.02,NE,36,0.0,-999.0,66,-99.99,,,0.00,weatherlink.com 1.10,2013-12-29 09:01:00,
2013-12-29 01:16:00,42.2,30.0,30.02,NE,36,0.0,-999.0,62,-99.99,,,0.00,weatherlink.com 1.10,2013-12-29 09:16:00,
2013-12-29 01:32:00,43.1,30.0,30.02,NE,36,1.0,-999.0,61,-99.99,,,0.00,weatherlink.com 1.10,2013-12-29 09:32:00,
2013-12-29 01:46:00,43.5,31.0,30.02,NE,36,0.0,-999.0,61,-99.99,,,0.00,weatherlink.com 1.10,2013-12-29 09:46:00,
2013-12-29 02:01:00,44.5,29.0,30.02,NE,36,0.0,-999.0,56,-99.99,,,0.00,weatherlink.com 1.10,2013-12-29 10:01:00,
2013-12-29 02:16:00,45.0,27.0,30.02,NE,36,0.0,-999.0,50,-99.99,,,0.00,weatherlink.com 1.10,2013-12-29 10:16:00,
2013-12-29 02:30:00,44.6,28.0,30.03,NE,36,0.0,-999.0,53,-99.99,,,0.00,weatherlink.com 1.10,2013-12-29 10:30:00,
2013-12-29 02:46:00,44.8,28.0,30.03,NE,36,0.0,-999.0,52,-99.99,,,0.00,weatherlink.com 1.10,2013-12-29 10:46:00,
2013-12-29 03:00:00,44.8,28.0,30.03,NE,36,0.0,-999.0,53,-99.99,,,0.00,weatherlink.com 1.10,2013-12-29 11:00:00,
2013-12-29 03:15:00,45.0,30.0,30.03,NE,36,0.0,-999.0,57,-99.99,,,0.00,weatherlink.com 1.10,2013-12-29 11:15:00,
2013-12-29 03:32:00,45.3,27.0,30.03,NE,36,1.0,-999.0,50,-99.99,,,0.00,weatherlink.com 1.10,2013-12-29 11:32:00,
2013-12-29 03:47:00,45.2,29.0,30.03,NE,36,2.0,-999.0,54,-99.99,,,0.00,weatherlink.com 1.10,2013-12-29 11:47:00,
2013-12-29 04:02:00,44.6,28.0,30.03,NE,36,1.0,-999.0,52,-99.99,,,0.00,weatherlink.com 1.10,2013-12-29 12:02:00,
2013-12-29 04:16:00,45.9,28.0,30.03,NE,36,1.0,-999.0,49,-99.99,,,0.00,weatherlink.com 1.10,2013-12-29 12:16:00,
2013-12-29 04:30:00,46.7,30.0,30.03,NE,36,0.0,-999.0,52,-99.99,,,0.00,weatherlink.com 1.10,2013-12-29 12:30:00,
2013-12-29 04:46:00,45.7,30.0,30.02,NE,36,2.0,-999.0,54,-99.99,,,0.00,weatherlink.com 1.10,2013-12-29 12:46:00,
2013-12-29 05:01:00,45.8,28.0,30.01,NE,36,2.0,-999.0,50,-99.99,,,0.00,weatherlink.com 1.10,2013-12-29 13:01:00,
2013-12-29 05:16:00,46.3,27.0,30.01,NE,36,3.0,-999.0,48,-99.99,,,0.00,weatherlink.com 1.10,2013-12-29 13:16:00,
2013-12-29 05:31:00,47.2,29.0,30.01,NE,36,0.0,-999.0,50,-99.99,,,0.00,weatherlink.com 1.10,2013-12-29 13:31:00,
2013-12-29 05:46:00,47.0,28.0,30.02,NE,36,3.0,-999.0,47,-99.99,,,0.00,weatherlink.com 1.10,2013-12-29 13:46:00,
2013-12-29 06:01:00,46.3,28.0,30.02,NE,36,0.0,-999.0,50,-99.99,,,0.00,weatherlink.com 1.10,2013-12-29 14:01:00,
2013-12-29 06:16:00,46.4,28.0,30.03,NE,36,1.0,-999.0,50,-99.99,,,0.00,weatherlink.com 1.10,2013-12-29 14:16:00,
2013-12-29 06:31:00,46.3,28.0,30.03,NE,36,2.0,-999.0,49,-99.99,,,0.00,weatherlink.com 1.10,2013-12-29 14:31:00,
2013-12-29 06:47:00,46.1,27.0,30.04,NE,36,3.0,-999.0,47,-99.99,,,0.00,weatherlink.com 1.10,2013-12-29 14:47:00,
2013-12-29 07:02:00,46.1,27.0,30.04,NE,37,3.0,-999.0,48,-99.99,,,0.00,weatherlink.com 1.10,2013-12-29 15:02:00,
2013-12-29 07:16:00,47.0,26.0,30.04,ENE,57,3.0,-999.0,45,-99.99,,,0.00,weatherlink.com 1.10,2013-12-29 15:16:00,
2013-12-29 07:32:00,47.8,26.0,30.05,ENE,57,2.0,-999.0,43,-99.99,,,0.00,weatherlink.com 1.10,2013-12-29 15:32:00,
2013-12-29 07:47:00,48.5,28.0,30.07,ENE,57,1.0,-999.0,45,-99.99,,,0.00,weatherlink.com 1.10,2013-12-29 15:47:00,
2013-12-29 08:01:00,48.6,26.0,30.07,ENE,58,4.0,-999.0,42,-99.99,,,0.00,weatherlink.com 1.10,2013-12-29 16:01:00,
2013-12-29 08:16:00,49.3,26.0,30.07,ENE,59,2.0,-999.0,41,-99.99,,,0.00,weatherlink.com 1.10,2013-12-29 16:16:00,
2013-12-29 08:31:00,50.1,27.0,30.07,ENE,59,3.0,-999.0,41,-99.99,,,0.00,weatherlink.com 1.10,2013-12-29 16:31:00,
2013-12-29 08:46:00,50.9,31.0,30.08,ENE,59,3.0,-999.0,46,-99.99,,,0.00,weatherlink.com 1.10,2013-12-29 16:46:00,
2013-12-29 09:16:00,50.6,31.0,30.08,ENE,59,2.0,-999.0,47,-99.99,,,0.00,weatherlink.com 1.10,2013-12-29 17:16:00,
2013-12-29 09:31:00,51.8,32.0,30.07,ENE,59,1.0,-999.0,47,-99.99,,,0.00,weatherlink.com 1.10,2013-12-29 17:31:00,
2013-12-29 09:46:00,53.5,34.0,30.08,ENE,59,0.0,-999.0,47,-99.99,,,0.00,weatherlink.com 1.10,2013-12-29 17:46:00,
2013-12-29 10:00:00,55.3,34.0,30.09,ENE,59,1.0,-999.0,44,-99.99,,,0.00,weatherlink.com 1.10,2013-12-29 18:00:00,
2013-12-29 10:17:00,60.8,35.0,30.09,ENE,59,2.0,-999.0,38,-99.99,,,0.00,weatherlink.com 1.10,2013-12-29 18:17:00,
2013-12-29 10:32:00,64.1,33.0,30.09,SSW,194,3.0,-999.0,31,-99.99,,,0.00,weatherlink.com 1.10,2013-12-29 18:32:00,
2013-12-29 10:47:00,65.9,33.0,30.09,SSW,193,4.0,-999.0,29,-99.99,,,0.00,weatherlink.com 1.10,2013-12-29 18:47:00,
2013-12-29 11:00:00,66.3,37.0,30.09,SSW,193,0.0,-999.0,34,-99.99,,,0.00,weatherlink.com 1.10,2013-12-29 19:00:00,
2013-12-29 11:16:00,67.0,33.0,30.08,South,190,4.0,-999.0,28,-99.99,,,0.00,weatherlink.com 1.10,2013-12-29 19:16:00,
2013-12-29 11:30:00,67.6,37.0,30.08,SSW,213,3.0,-999.0,32,-99.99,,,0.00,weatherlink.com 1.10,2013-12-29 19:30:00,
2013-12-29 11:47:00,67.4,38.0,30.08,SW,222,2.0,-999.0,34,-99.99,,,0.00,weatherlink.com 1.10,2013-12-29 19:47:00,
2013-12-29 12:01:00,66.9,38.0,30.07,SW,226,3.0,-999.0,34,-99.99,,,0.00,weatherlink.com 1.10,2013-12-29 20:01:00,
2013-12-29 12:16:00,67.5,36.0,30.07,SSW,196,4.0,-999.0,31,-99.99,,,0.00,weatherlink.com 1.10,2013-12-29 20:16:00,
2013-12-29 12:31:00,68.7,32.0,30.07,SSW,199,6.0,-999.0,26,-99.99,,,0.00,weatherlink.com 1.10,2013-12-29 20:31:00,
2013-12-29 12:46:00,68.0,31.0,30.07,WSW,238,2.0,-999.0,25,-99.99,,,0.00,weatherlink.com 1.10,2013-12-29 20:46:00,
2013-12-29 13:01:00,67.3,31.0,30.06,SW,214,3.0,-999.0,26,-99.99,,,0.00,weatherlink.com 1.10,2013-12-29 21:01:00,
2013-12-29 13:16:00,66.8,31.0,30.06,SSW,207,7.0,-999.0,26,-99.99,,,0.00,weatherlink.com 1.10,2013-12-29 21:16:00,
2013-12-29 13:31:00,67.7,31.0,30.06,SSW,200,4.0,-999.0,25,-99.99,,,0.00,weatherlink.com 1.10,2013-12-29 21:31:00,
2013-12-29 13:45:00,67.5,31.0,30.05,SSW,201,4.0,-999.0,26,-99.99,,,0.00,weatherlink.com 1.10,2013-12-29 21:45:00,
2013-12-29 14:02:00,68.1,30.0,30.05,SSW,201,4.0,-999.0,24,-99.99,,,0.00,weatherlink.com 1.10,2013-12-29 22:02:00,
2013-12-29 14:16:00,67.5,31.0,30.05,SSW,194,7.0,-999.0,26,-99.99,,,0.00,weatherlink.com 1.10,2013-12-29 22:16:00,
2013-12-29 14:31:00,67.3,31.0,30.05,SSW,199,6.0,-999.0,26,-99.99,,,0.00,weatherlink.com 1.10,2013-12-29 22:31:00,
2013-12-29 14:46:00,66.2,33.0,30.05,South,182,5.0,-999.0,29,-99.99,,,0.00,weatherlink.com 1.10,2013-12-29 22:46:00,
2013-12-29 15:01:00,65.1,33.0,30.05,SSW,205,5.0,-999.0,30,-99.99,,,0.00,weatherlink.com 1.10,2013-12-29 23:01:00,
2013-12-29 15:16:00,65.0,34.0,30.06,SSW,200,4.0,-999.0,32,-99.99,,,0.00,weatherlink.com 1.10,2013-12-29 23:16:00,
2013-12-29 15:31:00,63.6,35.0,30.07,SSW,204,4.0,-999.0,34,-99.99,,,0.00,weatherlink.com 1.10,2013-12-29 23:31:00,
2013-12-29 15:46:00,62.1,33.0,30.07,SSW,201,4.0,-999.0,34,-99.99,,,0.00,weatherlink.com 1.10,2013-12-29 23:46:00,
2013-12-29 16:02:00,62.1,30.0,30.06,South,175,4.0,-999.0,30,-99.99,,,0.00,weatherlink.com 1.10,2013-12-30 00:02:00,
2013-12-29 16:16:00,61.6,30.0,30.06,South,173,0.0,-999.0,30,-99.99,,,0.00,weatherlink.com 1.10,2013-12-30 00:16:00,
2013-12-29 16:32:00,61.6,30.0,30.07,South,173,1.0,-999.0,30,-99.99,,,0.00,weatherlink.com 1.10,2013-12-30 00:32:00,
2013-12-29 16:46:00,61.6,31.0,30.07,South,173,1.0,-999.0,31,-99.99,,,0.00,weatherlink.com 1.10,2013-12-30 00:46:00,
2013-12-29 17:01:00,60.4,32.0,30.07,SSE,167,2.0,-999.0,35,-99.99,,,0.00,weatherlink.com 1.10,2013-12-30 01:01:00,
2013-12-29 17:16:00,57.8,31.0,30.07,East,87,3.0,-999.0,37,-99.99,,,0.00,weatherlink.com 1.10,2013-12-30 01:16:00,
2013-12-29 17:31:00,55.3,32.0,30.07,East,82,2.0,-999.0,41,-99.99,,,0.00,weatherlink.com 1.10,2013-12-30 01:31:00,
2013-12-29 17:46:00,53.3,31.0,30.07,East,82,3.0,-999.0,43,-99.99,,,0.00,weatherlink.com 1.10,2013-12-30 01:46:00,
2013-12-29 18:00:00,51.9,30.0,30.07,East,82,3.0,-999.0,43,-99.99,,,0.00,weatherlink.com 1.10,2013-12-30 02:00:00,
2013-12-29 18:17:00,51.0,30.0,30.07,East,82,2.0,-999.0,45,-99.99,,,0.00,weatherlink.com 1.10,2013-12-30 02:17:00,
2013-12-29 18:31:00,50.2,28.0,30.07,East,82,3.0,-999.0,43,-99.99,,,0.00,weatherlink.com 1.10,2013-12-30 02:31:00,
2013-12-29 18:47:00,49.3,30.0,30.07,ENE,69,2.0,-999.0,47,-99.99,,,0.00,weatherlink.com 1.10,2013-12-30 02:47:00,
2013-12-29 19:01:00,48.2,28.0,30.08,ENE,69,2.0,-999.0,45,-99.99,,,0.00,weatherlink.com 1.10,2013-12-30 03:01:00,
2013-12-29 19:17:00,47.4,27.0,30.08,ENE,69,2.0,-999.0,45,-99.99,,,0.00,weatherlink.com 1.10,2013-12-30 03:17:00,
2013-12-29 19:32:00,47.1,27.0,30.08,ENE,69,2.0,-999.0,45,-99.99,,,0.00,weatherlink.com 1.10,2013-12-30 03:32:00,
2013-12-29 19:46:00,46.8,26.0,30.09,ENE,69,1.0,-999.0,44,-99.99,,,0.00,weatherlink.com 1.10,2013-12-30 03:46:00,
2013-12-29 20:01:00,46.4,27.0,30.09,ENE,69,2.0,-999.0,47,-99.99,,,0.00,weatherlink.com 1.10,2013-12-30 04:01:00,
2013-12-29 20:16:00,45.9,26.0,30.09,ENE,69,3.0,-999.0,46,-99.99,,,0.00,weatherlink.com 1.10,2013-12-30 04:16:00,
2013-12-29 20:32:00,45.8,26.0,30.10,ENE,69,2.0,-999.0,47,-99.99,,,0.00,weatherlink.com 1.10,2013-12-30 04:32:00,
2013-12-29 20:46:00,45.6,26.0,30.09,ENE,69,3.0,-999.0,46,-99.99,,,0.00,weatherlink.com 1.10,2013-12-30 04:46:00,
2013-12-29 21:01:00,45.8,25.0,30.09,ENE,69,2.0,-999.0,45,-99.99,,,0.00,weatherlink.com 1.10,2013-12-30 05:01:00,
2013-12-29 21:16:00,46.0,26.0,30.09,ENE,69,3.0,-999.0,45,-99.99,,,0.00,weatherlink.com 1.10,2013-12-30 05:16:00,
2013-12-29 21:31:00,45.9,25.0,30.09,ENE,69,2.0,-999.0,44,-99.99,,,0.00,weatherlink.com 1.10,2013-12-30 05:31:00,
2013-12-29 21:46:00,45.3,25.0,30.09,NE,53,5.0,-999.0,46,-99.99,,,0.00,weatherlink.com 1.10,2013-12-30 05:46:00,
2013-12-29 22:01:00,45.3,25.0,30.10,NE,51,6.0,-999.0,45,-99.99,,,0.00,weatherlink.com 1.10,2013-12-30 06:01:00,
2013-12-29 22:16:00,45.3,25.0,30.10,NE,52,3.0,-999.0,45,-99.99,,,0.00,weatherlink.com 1.10,2013-12-30 06:16:00,
2013-12-29 22:31:00,45.4,24.0,30.10,NE,52,3.0,-999.0,43,-99.99,,,0.00,weatherlink.com 1.10,2013-12-30 06:31:00,
2013-12-29 22:47:00,45.6,25.0,30.10,NE,52,1.0,-999.0,45,-99.99,,,0.00,weatherlink.com 1.10,2013-12-30 06:47:00,
2013-12-29 23:01:00,45.6,26.0,30.10,NE,52,4.0,-999.0,46,-99.99,,,0.00,weatherlink.com 1.10,2013-12-30 07:01:00,
2013-12-29 23:16:00,45.2,25.0,30.10,NE,52,3.0,-999.0,45,-99.99,,,0.00,weatherlink.com 1.10,2013-12-30 07:16:00,
2013-12-29 23:32:00,45.9,24.0,30.09,NE,52,2.0,-999.0,42,-99.99,,,0.00,weatherlink.com 1.10,2013-12-30 07:32:00,
2013-12-29 23:46:00,46.3,25.0,30.09,NE,52,3.0,-999.0,43,-99.99,,,0.00,weatherlink.com 1.10,2013-12-30 07:46:00,